Погода в Голубицкой

Россия / Краснодарский край     45°19′23″N   37°16′29″E
темп.,
°C
ветер,
м/с
пор.,
м/с
влажн.,
%
обл.,
%
осадки,
мм/ч
давл.,
гПа
погр.,
м
13 апреля, вт
вт1300:00+8ю3790100 0.0 1023253
03:00+8ю3593100 0.3 1022147
06:00+8ю4691100 0.0 1022266
09:00+10ю358189 0.1 1023456
12:00+12ююз5570100 0.0 1022726
15:00+12ююз5568100 0.0 1022746
18:00+10юз3372100 0.0 1022396
21:00+9юз228024 0.0 102135
14 апреля, ср
ср1400:00+8ююв118314 0.0 102110
03:00+7в228554 0.0 102019
06:00+7юв2290100 0.0 101917
09:00+11ю3475100 0.0 1019513
12:00+13ююз556648 0.0 1018877
15:00+13юз66651 0.0 1018634
18:00+12ююз5772100 0.0 1017341
21:00+9ю3582100 0.0 101798
15 апреля, чт
чт1500:00+9юв2283100 0.0 101625
03:00+8ю22845 0.0 101523
06:00+8ююв338380 0.0 101539
09:00+11ююз5873100 0.0 1016467
12:00+10ююз7989100 1.3 1016489
15:00+13юз687592 2.6 1016608
18:00+11юз69780 0.0 1016386
21:00
16 апреля, пт
пт1600:00+8юз4893100 0.0 1016284
03:00+8юз489199 0.0 1016258
06:00+7зюз359398 0.0 1017155
09:00+9ююз3585100 0.5 1018526
12:00+11ююз6673100 0.1 1018708
15:00+12ююз67655 0.1 1018719
18:00+10ююз6872100 0.0 1018554
21:00+8ююз488898 0.0 1019229
17 апреля, сб
сб1700:00+8ююз610875 0.0 1020338
03:00+7юз36911 0.0 1020143
06:00+6юз22903 0.0 102061
09:00+10ююз33646 0.0 1021716
12:00+12юз3354100 0.0 1021826
15:00+12юз3251100 0.0 1021760
18:00+11ссв115874 0.0 1021338
21:00+8св11700 0.0 102111